Snowfall_Accumulation
1.1 2.8 5.1 2.8 2.0 2.4 3.0 3.7 3.2 1.3 0.2 1.0 1.3 1.2 0.9 0.5 0.5 0.6 0.3 0.2 0.2 0.3 0.2 0.1 0.0 0.0 0.0 0.0 0.0 0.0 0.0 0.0 0.0 0.0 0.0 0.0 0.0 0.0 0.0 0.1 0.1 0.2 0.2 0.4
3.4 4.5 1.3 0.4 0.8 1.8 3.2 4.4 3.0 1.1 0.5 1.2 1.6 1.4 1.0 0.6 0.7 0.6 0.4 0.6 0.5 0.5 0.5 0.4 0.2 0.1 0.0 0.0 0.0 0.0 0.0 0.0 0.0 0.0 0.0 0.0 0.0 0.0 0.0 0.0 0.1 0.1 0.2 0.4
5.0 1.9 0.5 1.4 2.2 3.4 3.6 3.6 2.9 3.0 1.3 1.4 2.5 2.5 1.3 0.7 0.6 0.6 0.5 0.6 0.6 0.6 0.6 0.5 0.2 0.2 0.1 0.1 0.0 0.0 0.0 0.0 0.0 0.0 0.0 0.0 0.0 0.0 0.0 0.0 0.0 0.1 0.2 0.3
2.8 0.5 0.7 1.9 2.4 3.3 4.1 1.1 1.9 2.7 3.9 4.7 4.2 7.0 1.9 1.2 0.8 0.9 0.7 0.8 0.6 0.4 0.4 0.3 0.5 0.3 0.3 0.2 0.1 0.0 0.0 0.0 0.0 0.0 0.0 0.0 0.0 0.0 0.0 0.0 0.0 0.1 0.1 0.2
3.3 0.7 1.0 2.5 1.6 1.6 2.7 0.8 1.4 2.8 4.7 5.5 3.1 6.6 3.1 1.3 1.4 1.1 0.9 0.9 0.6 0.5 0.7 0.7 0.8 0.8 0.5 0.6 0.2 0.1 0.1 0.1 0.0 0.0 0.0 0.0 0.0 0.0 0.0 0.0 0.0 0.0 0.1 0.1
1.5 0.6 0.9 1.1 0.4 0.6 1.1 1.2 1.6 2.6 5.8 12.0 3.6 5.3 4.6 3.3 3.3 1.8 1.0 1.0 0.7 0.7 0.8 0.8 0.8 0.9 0.9 0.7 0.7 0.3 0.2 0.2 0.1 0.1 0.1 0.2 0.1 0.1 0.0 0.0 0.0 0.0 0.0 0.0
4.7 2.0 1.0 0.8 1.8 1.5 2.5 7.4 18.1 19.5 17.9 9.5 1.7 3.2 4.0 2.6 2.0 1.8 1.7 1.7 1.2 0.8 0.8 0.9 0.9 0.7 1.0 0.9 0.6 0.8 0.3 0.8 0.8 0.4 0.5 0.4 0.2 0.2 0.2 0.2 0.1 0.1 0.1 0.1
9.6 9.0 1.9 1.1 2.1 3.4 2.7 5.2 13.5 13.8 8.9 3.8 2.3 3.7 3.4 1.9 1.3 1.2 1.0 1.0 1.0 0.9 0.6 0.7 0.9 0.9 0.8 0.7 0.6 0.7 0.7 0.7 0.8 0.7 0.5 0.5 0.2 0.2 0.2 0.1 0.1 0.2 0.0 0.0
8.8 6.3 0.9 0.6 0.9 2.2 4.4 5.3 4.3 8.8 6.6 4.5 3.7 2.9 2.5 1.3 1.1 1.0 0.9 0.7 0.9 1.0 0.9 0.9 0.9 0.8 0.8 0.8 0.6 0.7 0.7 0.5 0.5 0.5 0.5 0.5 0.4 0.3 0.2 0.2 0.2 0.0 0.0 0.0
8.6 7.3 1.7 0.5 1.1 1.2 2.3 3.3 6.0 12.1 10.5 6.3 3.8 3.4 4.2 2.7 2.3 1.6 1.5 1.3 0.8 1.0 1.2 1.4 0.8 0.7 0.9 0.7 0.7 0.7 0.8 0.7 0.4 0.4 0.5 0.5 0.9 0.4 0.3 0.3 0.2 0.2 0.1 0.1
6.2 8.8 5.5 2.3 4.1 3.9 3.2 4.6 7.1 9.8 8.4 7.8 5.1 4.4 3.5 3.2 2.4 1.9 1.7 1.5 1.0 1.0 1.1 1.2 0.8 0.5 0.7 0.6 0.7 0.8 0.9 0.9 0.7 0.5 0.4 0.8 0.8 0.3 0.4 0.4 0.3 0.3 0.2 0.2
5.4 8.8 7.8 3.7 1.8 1.9 3.2 4.8 7.0 11.6 8.9 5.9 5.8 4.9 2.5 1.8 1.8 1.7 1.6 1.6 1.4 1.1 0.9 0.7 0.8 0.4 0.4 0.5 0.6 0.8 1.1 1.1 0.9 0.6 0.5 0.4 0.3 0.3 0.3 0.3 0.4 0.3 0.3 0.2
9.8 13.5 12.6 5.6 2.9 2.5 4.3 4.5 5.2 6.9 8.6 6.7 6.0 4.6 1.8 1.0 0.8 1.0 1.1 1.3 1.4 1.0 0.7 0.8 0.8 0.5 0.5 0.6 0.6 0.9 0.9 1.2 1.0 1.0 0.7 0.4 0.3 0.3 0.3 0.3 0.3 0.2 0.2 0.2
8.0 15.3 11.0 9.1 6.9 6.5 6.4 4.8 4.3 7.0 10.4 6.5 3.8 3.3 2.0 1.3 1.0 1.0 1.0 1.0 1.4 1.6 1.0 0.9 1.0 0.8 0.6 0.6 0.6 0.7 0.9 1.2 0.9 0.9 1.0 0.8 0.8 0.3 0.3 0.3 0.2 0.2 0.2 0.2
7.0 12.3 6.1 3.8 2.8 3.6 4.0 3.5 3.4 5.2 5.6 5.3 3.0 2.7 2.5 2.0 1.7 1.5 1.4 1.3 1.3 1.5 1.3 1.1 1.2 1.3 0.7 0.7 0.5 0.4 0.6 0.9 0.9 0.9 0.9 0.9 0.8 0.8 0.6 0.4 0.2 0.2 0.2 0.2
8.4 10.6 5.3 3.3 2.3 2.7 3.0 2.6 2.7 3.2 3.3 3.2 2.4 2.6 2.1 1.8 1.3 1.4 1.3 1.5 1.7 1.9 1.4 1.2 1.3 1.5 1.3 0.8 0.6 0.5 0.6 0.7 0.8 1.0 1.0 0.9 1.0 1.0 1.1 0.6 0.3 0.3 0.4 0.4
9.8 10.5 9.2 4.9 2.4 4.1 5.2 3.5 3.5 3.6 3.4 3.7 4.1 3.3 2.1 1.9 1.8 2.1 2.2 2.3 2.3 2.4 1.9 1.5 1.5 1.7 1.3 0.9 0.7 0.8 0.6 0.6 0.8 0.8 1.1 1.2 1.1 1.1 1.1 1.2 1.0 0.6 0.7 0.8
8.2 10.3 13.4 8.7 6.2 9.3 3.7 2.3 2.5 3.0 3.4 3.6 3.4 2.8 2.6 2.6 2.3 2.2 2.3 2.9 2.9 2.5 2.2 2.0 1.8 1.4 1.1 0.7 0.7 0.6 0.6 0.7 0.8 0.7 0.9 1.0 1.1 1.1 1.1 1.2 1.4 1.1 1.0 0.9
3.4 9.7 15.6 13.8 9.8 5.1 2.4 2.1 2.8 3.8 4.2 3.3 3.0 2.7 2.4 1.9 1.6 1.7 1.4 1.9 2.7 2.7 2.5 2.3 1.9 1.3 0.9 0.6 0.6 0.7 0.6 0.6 0.6 0.7 0.8 1.0 1.1 1.0 0.9 1.1 1.5 1.4 1.3 1.1
3.5 8.0 16.8 15.7 12.0 5.6 3.4 2.0 1.6 2.6 5.2 2.9 2.7 2.9 2.5 2.3 3.2 2.4 1.4 1.9 2.2 1.8 2.2 2.3 1.9 1.3 0.8 0.3 0.4 0.7 0.8 0.6 0.7 1.0 0.9 0.9 0.9 1.1 0.9 1.3 1.8 1.6 1.4 1.0
8.5 13.7 16.7 13.4 10.9 4.4 3.0 1.9 1.3 4.7 6.0 2.7 2.5 2.7 2.6 3.2 3.9 2.9 2.0 2.1 2.2 1.8 1.9 1.9 1.8 1.3 0.9 0.3 0.4 0.6 0.9 1.0 0.8 0.8 0.8 0.9 1.1 1.0 1.2 1.7 2.0 1.5 1.2 1.5
6.8 10.1 10.7 10.1 11.5 6.0 2.6 3.0 4.9 5.5 2.6 1.8 1.7 1.8 2.0 2.0 1.9 1.8 1.8 1.8 1.5 1.7 1.5 1.4 1.7 1.5 1.0 0.4 0.6 0.6 0.6 0.9 0.8 0.9 1.0 1.3 1.4 1.1 0.9 1.5 1.9 1.7 1.8 1.6
5.5 6.8 7.1 6.8 5.5 3.5 2.4 3.0 2.8 2.1 2.1 1.5 1.4 1.4 1.4 1.6 1.6 1.9 1.8 1.6 1.5 1.6 1.6 1.3 1.6 1.5 0.9 0.7 0.7 1.1 0.7 0.9 1.3 1.4 1.2 1.5 1.4 1.2 1.1 1.4 1.6 1.5 1.5 1.7
3.3 3.0 5.0 5.0 3.0 2.3 2.2 2.0 1.8 1.5 1.6 1.3 1.3 1.2 1.1 1.3 1.4 1.7 1.6 1.5 1.5 1.3 1.4 1.5 1.5 1.5 1.3 1.1 0.6 0.9 0.9 1.1 1.3 1.4 1.4 1.5 1.5 1.5 1.5 1.4 1.6 1.8 1.8 2.8
2.8 3.4 4.5 4.3 2.4 1.8 1.7 1.7 1.7 1.5 1.3 1.3 1.3 1.2 1.2 1.4 1.5 1.4 1.6 1.5 1.4 1.5 1.5 1.6 1.7 1.6 1.5 1.5 1.1 1.0 1.2 1.3 1.3 1.3 1.4 1.7 1.7 1.8 1.6 1.7 1.5 1.9 2.2 3.3
2.2 3.2 4.6 4.4 2.5 3.0 2.5 2.0 1.7 1.8 1.7 1.6 1.6 1.5 1.2 1.5 1.8 1.7 1.7 1.7 1.7 1.4 1.5 1.4 1.4 1.8 1.7 1.7 1.4 1.3 1.4 1.5 1.5 1.6 1.3 1.6 1.8 1.5 1.4 1.5 1.6 1.4 1.5 1.8